{"data":{"norad_id":66913,"epoch":"2026-09-20T06:33:59.017536Z","epoch_age_seconds":134240,"freshness":"FRESH","line1":"1 66913U 25284A   26263.27359974  .00000120  00000+0  78846-4 0  9990","line2":"2 66913  80.4075 190.1251 0005068 242.0796 117.9852 13.97368035 40764","mean_motion":13.97368035,"eccentricity":0.0005068,"inclination_deg":80.4075,"raan_deg":190.1251,"arg_perigee_deg":242.0796,"mean_anomaly_deg":117.9852,"bstar":7.8846e-5,"rev_number":4076,"period_min":103.05087592761,"perigee_km":899.23343535145,"apogee_km":906.61351825073,"semimajor_km":7281.0604768011,"source":"CELESTRAK","updated_at":"2026-09-21T09:00:16.282382Z"}}